[[{"header":{"parameterUnit":"m.s-1","parameterCategory":1,"la1":30.2991,"la2":30.254,"lo1":-89.0895,"lo2":-89.0444,"dy":0.0017,"dx":0.0017,"nx":28,"ny":28,"refTime":"2023-09-17T21:00:00:Z","depth":0,"parameterNumber":2,"parameterNumberName":"U-component_of_WINDS"},"data":[0,0,0,0,0,0,0,0,0,0,0,0,0,0,0,0,0,0,0,0,0,0,0,0,0,0,0,0,0,0,0,0,0,0,0,0,0,0,0,0,0,0,0,0,0,0,0,0,0,0,0,0,0,0,0,0,0,0,-2.879,-2.8791,0,-2.8869,-2.887,-2.8871,-2.8848,-2.8846,-2.8844,-2.8843,-2.8923,-2.8926,-2.893,0,0,0,0,0,0,0,0,0,0,0,0,0,-2.8621,-2.8624,-2.879,-2.8791,-2.8792,-2.8869,-2.887,-2.8871,-2.8848,-2.8846,-2.8844,-2.8842,-2.8922,-2.8926,-2.893,0,0,0,0,0,0,0,0,0,0,0,0,0,-2.8696,-2.8625,-2.879,-2.879,-2.8791,-2.8868,-2.887,-2.8871,-2.8848,-2.8846,-2.8843,-2.8841,-2.892,-2.8926,-2.8931,-2.9013,0,0,-2.8948,-2.895,0,0,0,0,0,0,0,0,-2.8692,-2.8703,-2.8789,-2.879,-2.8791,-2.8846,-2.8839,-2.8919,-2.8849,-2.8826,-2.8843,-2.884,-2.8899,-2.8906,-2.8926,-2.9017,-2.9021,-2.8948,-2.8951,-2.8954,-2.8955,0,0,0,0,0,0,0,-2.8687,-2.8699,-2.8821,-2.879,-2.8792,-2.8786,-2.8794,-2.8854,-2.8876,-2.8828,-2.8827,-2.8836,-2.8899,-2.8921,-2.8928,-2.9022,-2.8948,-2.8953,-2.8956,-2.8958,-2.9186,-2.9188,0,0,0,0,0,0,-2.8681,-2.8695,-2.8819,-2.8824,-2.8735,-2.8791,-2.88,-2.8831,-2.8875,-2.8879,-2.8838,-2.8835,-2.8913,-2.8922,-2.8931,-2.9032,-2.8954,-2.8959,-2.8962,-2.9183,-2.9186,-2.9189,0,0,0,0,0,0,-2.8677,-2.8692,-2.8816,-2.8759,-2.8774,-2.8797,-2.8831,-2.8834,-2.8855,-2.8882,-2.8886,-2.8857,-2.8911,-2.8923,-2.8993,-2.9034,-2.8961,-2.8966,-2.918,-2.9184,-2.9188,-2.9233,0,0,0,0,0,0,-2.8673,-2.8691,-2.8723,-2.876,-2.8777,-2.8877,-2.8834,-2.8837,-2.8865,-2.8861,-2.8901,-2.8905,-2.891,-2.8985,-2.8999,-2.904,-2.8971,-2.9176,-2.9182,-2.9187,-2.9228,-2.9238,-2.9247,0,0,0,0,0,-2.8667,-2.8732,-2.8724,-2.874,-2.8817,-2.888,-2.889,-2.8895,-2.8868,-2.89,-2.8918,-2.8904,-2.9027,-2.8993,-2.9008,-2.9051,-2.9174,-2.918,-2.9186,-2.9224,-2.9236,-2.9247,0,0,0,0,0,0,-2.8699,-2.8737,-2.8729,-2.8808,-2.8841,-2.8876,-2.8916,-2.8907,-2.8948,-2.8943,-2.8947,-2.8957,-2.9029,-2.9047,-2.9008,-2.9134,-2.9097,-2.9106,-2.912,-2.9132,-2.9141,-2.9136,-2.8975,0,0,0,0,0,-2.8715,-2.8762,-2.8793,-2.886,-2.8877,-2.8894,-2.8921,-2.8922,-2.8956,-2.897,-2.8992,-2.9026,-2.9072,-2.9103,-2.9147,-2.923,-2.9239,-2.9268,-2.9277,-2.9285,-2.9293,-2.934,-2.9353,-2.921,-2.921,-2.921,0,0,-2.8749,-2.8776,-2.8805,-2.8867,-2.8893,-2.8942,-2.8906,-2.8959,-2.8996,-2.8978,-2.9046,-2.9064,-2.9102,-2.9179,-2.9214,-2.9196,-2.9335,-2.9292,-2.9298,-2.9303,-2.9348,-2.9361,-2.9373,-2.9214,-2.9213,-2.9213,0,0,-2.8837,-2.8861,-2.8921,-2.8947,-2.8986,-2.8997,-2.9011,-2.9048,-2.9059,-2.9127,-2.9115,-2.9159,-2.9239,-2.9267,-2.9291,-2.939,-2.9379,-2.9404,-2.9454,-2.95,-2.9511,-2.9521,-2.9558,-2.9571,-2.9412,-2.9412,-2.9413,0,-2.8875,-2.8949,-2.8952,-2.9007,-2.9035,-2.9021,-2.9082,-2.9107,-2.9158,-2.9178,-2.9157,-2.9257,-2.9282,-2.9366,-2.9391,-2.941,-2.9428,-2.94,-2.9509,-2.9519,-2.9529,-2.9564,-2.9578,-2.9415,-2.9415,-2.9415,-2.9414,0,-2.8994,-2.9045,-2.9088,-2.9139,-2.9172,-2.9229,-2.9241,-2.9274,-2.9272,-2.9285,-2.9356,-2.9385,-2.9435,-2.9455,-2.9453,-2.954,-2.9527,-2.9508,-2.947,-2.9545,-2.9579,-2.9592,-2.942,-2.9419,-2.9418,-2.9417,0,0,-2.9105,-2.9157,-2.9173,-2.9196,-2.9239,-2.9279,-2.9335,-2.9385,-2.9414,-2.9449,-2.9498,-2.9566,-2.9548,-2.9576,-2.9577,-2.9617,-2.9696,-2.9593,-2.9594,-2.9612,-2.9794,-2.981,-2.9826,-2.9688,-2.969,-2.9692,-2.9792,0,-2.9197,-2.9298,-2.9303,-2.9395,-2.9443,-2.943,-2.948,-2.9512,-2.9526,-2.9569,-2.9583,-2.9632,-2.9604,-2.9621,-2.966,-2.9678,-2.9733,-2.967,-2.9734,-2.9736,-2.9727,-2.9843,-2.986,-2.9952,-2.9805,-2.9807,-2.9808,0,-2.9319,-2.936,-2.9457,-2.9493,-2.9514,-2.9558,-2.9605,-2.9645,-2.9681,-2.9688,-2.972,-2.9716,-2.9775,-2.9734,-2.9816,-2.9774,-2.98,-2.9812,-2.9816,-2.9824,-2.9778,-2.9855,-2.9982,-2.9996,-2.9829,-2.9827,-2.9826,0,-2.9393,-2.9471,-2.954,-2.956,-2.9604,-2.9636,-2.9655,-2.9688,-2.9718,-2.9758,-2.9778,-2.9824,-2.985,-2.9886,-2.9895,-2.9864,-2.9977,-2.9937,-2.9986,-2.9986,-3.0012,-3.001,-3.0146,-3.0026,-3.0026,-3.0025,-3.0025,0,-2.9497,-2.9557,-2.9574,-2.9616,-2.9683,-2.9688,-2.9754,-2.9772,-2.9801,-2.9847,-2.9838,-2.9881,-2.9889,-2.9934,-2.9941,-3.0009,-3.002,-3.0028,-3.003,-3.003,-3.003,-3.0049,-3.0043,-3.0029,-3.0028,-3.0027,-3.0027,0,-2.9591,-2.9605,-2.9679,-2.9714,-2.9724,-2.9773,-2.9803,-2.9844,-2.9856,-2.9914,-2.9928,-2.9948,-3.0001,-3.0013,-3.0075,-3.008,-3.016,-3.0154,-3.0149,-3.0149,-3.0198,-3.0194,-3.0352,-3.0374,-3.0237,-3.0239,-3.024,0,-2.9658,-2.9704,-2.9745,-2.9775,-2.9796,-2.9845,-2.9875,-2.9882,-2.9914,-2.9958,-2.9994,-3.0046,-3.0087,-3.0172,-3.0192,-3.024,-3.0237,-3.0289,-3.0244,-3.0243,-3.024,-3.0238,-3.0243,-3.0298,-3.0299,-3.03,-3.0301,0,-2.9775,-2.978,-2.9824,-2.9872,-2.9908,-2.9946,-2.9981,-3.0006,-3.0018,-3.0054,-3.0108,-3.0141,-3.0204,-3.0256,-3.0304,-3.0325,-3.0316,-3.0315,-3.0329,-3.0331,-3.0327,-3.0332,-3.0174,-3.0312,-3.0311,-3.031,-3.0309,-3.0309,-2.9859,-2.99,-2.9935,-2.9985,-3.0013,-3.0047,-3.0087,-3.0105,-3.015,-3.0203,-3.0204,-3.0263,-3.0298,-3.0362,-3.0385,-3.0431,-3.0415,-3.0435,-3.0441,-3.0446,-3.0452,-3.0318,-3.044,-3.044,-3.0439,-3.0439,-3.0439,0,-2.9978,-3.0,-3.0046,-3.0096,-3.0136,-3.0123,-3.0162,-3.0196,-3.0248,-3.0282,-3.0323,-3.0386,-3.0436,-3.046,-3.051,-3.0543,-3.054,-3.0556,-3.0555,-3.056,-3.0462,-3.0446,-3.0557,-3.0557,-3.0557,-3.0557,-3.0557,-3.0557,-3.0044,-3.0113,-3.0122,-3.0205,-3.0226,-3.0284,-3.0308,-3.0339,-3.0366,-3.0436,-3.0478,-3.0493,-3.0524,-3.0576,-3.0622,-3.0627,-3.0647,-3.0665,-3.0669,-3.0578,-3.0566,-3.0555,-3.054,-3.0669,-3.0669,-3.0763,-3.0764,-3.0765]},{"header":{"parameterUnit":"m.s-1","parameterCategory":1,"la1":30.2991,"la2":30.254,"lo1":-89.0895,"lo2":-89.0444,"dy":0.0017,"dx":0.0017,"nx":28,"ny":28,"refTime":"2023-09-17T21:00:00:Z","depth":0,"parameterNumber":3,"parameterNumberName":"V-component_of_WINDS"},"data":[0,0,0,0,0,0,0,0,0,0,0,0,0,0,0,0,0,0,0,0,0,0,0,0,0,0,0,0,0,0,0,0,0,0,0,0,0,0,0,0,0,0,0,0,0,0,0,0,0,0,0,0,0,0,0,0,0,0,-2.4003,-2.4004,0,-2.4023,-2.4023,-2.4024,-2.3978,-2.3977,-2.3976,-2.3974,-2.3995,-2.3997,-2.3999,0,0,0,0,0,0,0,0,0,0,0,0,0,-2.3926,-2.3928,-2.4003,-2.4004,-2.4004,-2.4023,-2.4023,-2.4024,-2.3979,-2.3977,-2.3975,-2.3974,-2.3994,-2.3997,-2.3999,0,0,0,0,0,0,0,0,0,0,0,0,0,-2.3954,-2.3928,-2.4003,-2.3984,-2.3982,-2.4023,-2.4023,-2.4024,-2.3979,-2.3977,-2.3975,-2.3973,-2.3994,-2.3996,-2.3999,-2.406,0,0,-2.4008,-2.4009,0,0,0,0,0,0,0,0,-2.3953,-2.3957,-2.3986,-2.3985,-2.3983,-2.3996,-2.4004,-2.4036,-2.398,-2.398,-2.3974,-2.3972,-2.3997,-2.4,-2.4008,-2.4061,-2.4062,-2.4008,-2.401,-2.4011,-2.4012,0,0,0,0,0,0,0,-2.3951,-2.3956,-2.4011,-2.3987,-2.3985,-2.3974,-2.3975,-2.401,-2.4001,-2.398,-2.3977,-2.398,-2.3996,-2.4005,-2.4008,-2.4062,-2.4008,-2.4011,-2.4012,-2.4013,-2.4166,-2.4169,0,0,0,0,0,0,-2.3951,-2.3955,-2.4011,-2.4012,-2.3962,-2.3977,-2.3979,-2.3994,-2.4,-2.3999,-2.3982,-2.3978,-2.4002,-2.4005,-2.4009,-2.4081,-2.4011,-2.4014,-2.4015,-2.4164,-2.4167,-2.4169,0,0,0,0,0,0,-2.395,-2.3957,-2.401,-2.3982,-2.3988,-2.3981,-2.3998,-2.3996,-2.4005,-2.4001,-2.3999,-2.3993,-2.4,-2.4005,-2.4048,-2.4081,-2.4015,-2.4018,-2.4161,-2.4165,-2.4168,-2.4226,0,0,0,0,0,0,-2.3948,-2.3956,-2.398,-2.3983,-2.399,-2.4049,-2.4,-2.3998,-2.401,-2.4005,-2.4012,-2.401,-2.3999,-2.4044,-2.4051,-2.4084,-2.402,-2.4158,-2.4163,-2.4167,-2.4221,-2.4231,-2.424,0,0,0,0,0,-2.3945,-2.3995,-2.3981,-2.3988,-2.4019,-2.4051,-2.4055,-2.404,-2.4013,-2.4036,-2.4034,-2.401,-2.4076,-2.4048,-2.4056,-2.409,-2.4156,-2.4162,-2.4167,-2.4217,-2.4229,-2.4239,0,0,0,0,0,0,-2.3996,-2.3995,-2.398,-2.4032,-2.4042,-2.4043,-2.4072,-2.4053,-2.4071,-2.4065,-2.4046,-2.4048,-2.4095,-2.4096,-2.4066,-2.415,-2.4111,-2.4119,-2.4147,-2.4159,-2.4168,-2.4167,-2.4022,0,0,0,0,0,-2.4014,-2.404,-2.4037,-2.4084,-2.409,-2.408,-2.4093,-2.4081,-2.409,-2.4094,-2.4095,-2.4104,-2.4127,-2.4143,-2.4163,-2.422,-2.4221,-2.4248,-2.4257,-2.4265,-2.4271,-2.4302,-2.4314,-2.4187,-2.4187,-2.4187,0,0,-2.405,-2.4053,-2.407,-2.4094,-2.41,-2.4128,-2.4084,-2.4115,-2.4135,-2.4099,-2.414,-2.414,-2.415,-2.42,-2.4222,-2.4203,-2.4306,-2.4271,-2.4277,-2.428,-2.4309,-2.4321,-2.4332,-2.419,-2.419,-2.4189,0,0,-2.413,-2.4135,-2.4174,-2.4181,-2.419,-2.4184,-2.4193,-2.4197,-2.4196,-2.4236,-2.421,-2.4233,-2.4273,-2.4281,-2.429,-2.4373,-2.4352,-2.438,-2.4429,-2.4459,-2.4469,-2.4478,-2.4508,-2.4519,-2.4386,-2.4386,-2.4386,0,-2.4175,-2.4215,-2.4197,-2.423,-2.4242,-2.4209,-2.4249,-2.4257,-2.4273,-2.4281,-2.4259,-2.4308,-2.4312,-2.4364,-2.4384,-2.4392,-2.4403,-2.438,-2.4469,-2.4478,-2.4486,-2.4514,-2.4526,-2.439,-2.4389,-2.4389,-2.4389,0,-2.4269,-2.4297,-2.4328,-2.4344,-2.4359,-2.4395,-2.4383,-2.44,-2.4386,-2.4381,-2.4423,-2.4426,-2.4447,-2.4458,-2.4445,-2.4509,-2.4497,-2.4472,-2.4434,-2.4501,-2.4528,-2.4539,-2.4395,-2.4393,-2.4392,-2.4392,0,0,-2.4384,-2.4389,-2.4401,-2.4408,-2.4415,-2.4437,-2.4471,-2.4492,-2.4507,-2.4518,-2.4547,-2.4581,-2.4558,-2.4569,-2.4556,-2.4582,-2.4648,-2.4554,-2.4554,-2.4572,-2.4719,-2.4739,-2.4752,-2.4633,-2.4635,-2.4637,-2.4719,0,-2.4465,-2.4524,-2.4509,-2.4569,-2.4595,-2.4564,-2.4594,-2.4602,-2.4598,-2.4619,-2.4615,-2.464,-2.4607,-2.4613,-2.4638,-2.4635,-2.4677,-2.4628,-2.4661,-2.4662,-2.4661,-2.4766,-2.4786,-2.4864,-2.4729,-2.4731,-2.4732,0,-2.4567,-2.4583,-2.4645,-2.4648,-2.4658,-2.4686,-2.4703,-2.4724,-2.4732,-2.4727,-2.4739,-2.472,-2.4754,-2.4714,-2.4761,-2.4728,-2.474,-2.474,-2.4743,-2.4747,-2.4703,-2.4774,-2.4888,-2.49,-2.4748,-2.4747,-2.4745,0,-2.4646,-2.4683,-2.4725,-2.4731,-2.4735,-2.4756,-2.4758,-2.4764,-2.4777,-2.4792,-2.48,-2.4819,-2.4829,-2.4844,-2.4831,-2.4803,-2.488,-2.4839,-2.4878,-2.4879,-2.4897,-2.4897,-2.5017,-2.4903,-2.4902,-2.4902,-2.4902,0,-2.4739,-2.4779,-2.476,-2.4786,-2.483,-2.4811,-2.4854,-2.4853,-2.4858,-2.4884,-2.4857,-2.4882,-2.4862,-2.4885,-2.4874,-2.4915,-2.492,-2.4917,-2.4915,-2.4921,-2.4921,-2.493,-2.4925,-2.4905,-2.4904,-2.4904,-2.4903,0,-2.4836,-2.4825,-2.4869,-2.4869,-2.487,-2.4902,-2.4902,-2.4926,-2.492,-2.4952,-2.4958,-2.4949,-2.4974,-2.4962,-2.4988,-2.4981,-2.5034,-2.5023,-2.5032,-2.5029,-2.507,-2.5067,-2.5201,-2.5217,-2.5091,-2.5092,-2.5093,0,-2.4897,-2.4926,-2.4929,-2.4944,-2.4949,-2.4973,-2.4987,-2.4969,-2.4983,-2.4994,-2.5017,-2.504,-2.5057,-2.5099,-2.5094,-2.5114,-2.5104,-2.515,-2.5107,-2.5113,-2.5107,-2.5106,-2.5109,-2.5159,-2.516,-2.5161,-2.5162,0,-2.5006,-2.4999,-2.5019,-2.5037,-2.5054,-2.5067,-2.5078,-2.5092,-2.5074,-2.5092,-2.5117,-2.5131,-2.5157,-2.518,-2.5197,-2.52,-2.5179,-2.5175,-2.5186,-2.5194,-2.5198,-2.5197,-2.5057,-2.5173,-2.5172,-2.5171,-2.5171,-2.517,-2.5088,-2.5113,-2.5119,-2.5142,-2.5148,-2.5159,-2.5182,-2.5178,-2.5199,-2.5219,-2.5207,-2.5237,-2.5243,-2.5264,-2.5269,-2.5292,-2.5274,-2.5289,-2.5293,-2.5297,-2.5303,-2.5193,-2.5295,-2.5295,-2.5294,-2.5294,-2.5294,0,-2.5197,-2.5199,-2.522,-2.5237,-2.5255,-2.5232,-2.5243,-2.526,-2.5287,-2.5294,-2.5312,-2.5341,-2.5363,-2.5359,-2.5379,-2.5399,-2.5389,-2.5405,-2.5404,-2.5405,-2.5318,-2.5307,-2.5412,-2.5412,-2.5412,-2.5412,-2.5412,-2.5412,-2.5256,-2.5297,-2.5291,-2.5335,-2.5337,-2.5366,-2.5374,-2.5384,-2.539,-2.5424,-2.5442,-2.5439,-2.5443,-2.5463,-2.5482,-2.548,-2.5489,-2.5509,-2.5504,-2.5423,-2.5411,-2.54,-2.539,-2.551,-2.551,-2.5589,-2.559,-2.559]}]]